Skip Page Navigation
NASA JPL Caltech
NASA Logo - Jet Propulsion Laboratory + View the NASA Portal
+ Center for Near-Earth Object Studies
JPL Home Earth Solar System Stars & Galaxies Technology
JPL Solar System Dynamics
BODIES ORBITS EPHEMERIDES TOOLS PHYSICAL DATA DISCOVERY FAQ SITE MAP
JPL Small-Body Database Browser
Search: [ help ]  
30582 (2001 PJ3)
Classification: Main-belt Asteroid          SPK-ID: 2030582
Ephemeris | Orbit Diagram | Orbital Elements | Mission Design | Physical Parameters | Discovery Circumstances ]

[ show orbit diagram ]
Orbital Elements at Epoch 2459200.5 (2020-Dec-17.0) TDB
Reference: JPL 21 (heliocentric ecliptic J2000)
 Element Value Uncertainty (1-sigma)   Units 
e .113215029600635 3.9584e-08  
a 2.543261975790275 1.2537e-08 au
q 2.25532649591901 1.0135e-07 au
i 3.04075487776266 3.9471e-06 deg
node 116.6195971174372 7.722e-05 deg
peri 200.8285145884788 8.1482e-05 deg
M 264.8801617391626 2.8988e-05 deg
tp 2459591.929611289492
(2022-Jan-12.42961129)
0.00012014 TDB
period 1481.443436413351
4.06
1.0954e-05
2.999e-08
d
yr
n .2430062405025589 1.7969e-09 deg/d
Q 2.83119745566154 1.3957e-08 au
  Orbit Determination Parameters
   # obs. used (total)      1117  
   data-arc span      17313 days (47.40 yr)  
   first obs. used      1973-09-19  
   last obs. used      2021-02-12  
   planetary ephem.      DE441  
   SB-pert. ephem.      SB441-N16  
   condition code      0  
   norm. resid. RMS      .53634  
   source      ORB  
   producer      Otto Matic  
   solution date      2021-Apr-13 06:38:01  

Additional Information
 Earth MOID = 1.24017 au 
 Jupiter MOID = 2.41738 au 
 T_jup = 3.433 
[ show covariance matrix ]

Ephemeris | Orbit Diagram | Orbital Elements | Mission Design | Physical Parameters | Discovery Circumstances ]

Physical Parameter Table
Parameter Symbol Value Units Sigma Reference Notes
absolute magnitude H 15.15   n/a E2021B10  

30582 (2001 PJ3)          Discovered 2001-Aug-05 by JPL/GEODSS NEAT at Palomar
Reference: 20011002/Numbers.arcLast Updated: 2004-04-19

Alternate Designations
 2001 PJ3 = 1998 XA76 = 2000 EH130 = 3320 T-2 
Ephemeris | Orbit Diagram | Orbital Elements | Mission Design | Physical Parameters | Discovery Circumstances ]
ABOUT SSD CREDITS/AWARDS PRIVACY/COPYRIGHT GLOSSARY LINKS
FirstGov 2021-Jun-21 18:01 UT
(server date/time)  
NASA Home Page
Site Manager:   Ryan S. Park
Webmaster  Alan B. Chamberlin